When you browse on this site, cookies collect data to enhance your experience and personalize the content and advertising you see.
Visit our Privacy Policy to learn more. By continuing to use the site, you agree to this use of cookies and data.
EN

Hourly Weather Detkovichi

Today, 10 August, Monday

Time Temperature Precipitation Wind Pressure Humidity
00:00 +19°C° 0.2 mm 2 mps 750 mmHg 88%
01:00 +19°C° 0.2 mm 1 mps 750 mmHg 90%
02:00 +19°C° 0.2 mm 1 mps 750 mmHg 91%
03:00 +19°C° 0 mm 1 mps 750 mmHg 91%
04:00 +18°C° 0 mm 1 mps 750 mmHg 91%
05:00 +18°C° 0 mm 1 mps 750 mmHg 91%
06:00 +19°C° 0 mm 1 mps 750 mmHg 88%
07:00 +19°C° 0 mm 2 mps 750 mmHg 84%
08:00 +21°C° 0 mm 2 mps 751 mmHg 81%
09:00 +23°C° 0 mm 2 mps 751 mmHg 75%
10:00 +24°C° 0 mm 2 mps 751 mmHg 70%
11:00 +25°C° 0 mm 2 mps 751 mmHg 64%
12:00 +26°C° 0.1 mm 2 mps 750 mmHg 62%
13:00 +26°C° 0.1 mm 2 mps 750 mmHg 59%
14:00 +27°C° 0.1 mm 1 mps 750 mmHg 57%
15:00 +27°C° 0.5 mm 1 mps 750 mmHg 59%
16:00 +27°C° 0.5 mm 1 mps 749 mmHg 61%
17:00 +26°C° 0.5 mm 1 mps 749 mmHg 64%
18:00 +25°C° 0.2 mm 1 mps 749 mmHg 69%
19:00 +23°C° 0.2 mm 1 mps 749 mmHg 74%
20:00 +21°C° 0.2 mm 1 mps 749 mmHg 80%
21:00 +21°C° 0.3 mm 1 mps 749 mmHg 82%
22:00 +20°C° 0.3 mm 1 mps 749 mmHg 84%
23:00 +20°C° 0.3 mm 1 mps 749 mmHg 87%

Tomorrow, 11 August, Tuesday

Time Temperature Precipitation Wind Pressure Humidity
00:00 +19°C° 0 mm 1 mps 749 mmHg 88%
01:00 +19°C° 0 mm 1 mps 749 mmHg 89%
02:00 +18°C° 0 mm 2 mps 749 mmHg 90%
03:00 +17°C° 0 mm 2 mps 749 mmHg 92%
04:00 +17°C° 0 mm 2 mps 749 mmHg 93%
05:00 +17°C° 0 mm 2 mps 749 mmHg 94%
06:00 +18°C° 0 mm 2 mps 749 mmHg 91%
07:00 +19°C° 0 mm 3 mps 749 mmHg 88%
08:00 +20°C° 0 mm 3 mps 750 mmHg 85%
09:00 +21°C° 0.4 mm 3 mps 749 mmHg 80%
10:00 +22°C° 0.4 mm 4 mps 749 mmHg 76%
11:00 +23°C° 0.4 mm 4 mps 749 mmHg 71%
12:00 +25°C° 0.2 mm 4 mps 749 mmHg 69%
13:00 +25°C° 0.2 mm 4 mps 749 mmHg 67%
14:00 +25°C° 0.2 mm 4 mps 749 mmHg 66%
15:00 +23°C° 0.1 mm 5 mps 750 mmHg 67%
16:00 +23°C° 0.1 mm 5 mps 750 mmHg 68%
17:00 +22°C° 0.1 mm 5 mps 750 mmHg 70%
18:00 +20°C° 0 mm 4 mps 750 mmHg 73%
19:00 +18°C° 0 mm 4 mps 750 mmHg 77%
20:00 +16°C° 0 mm 3 mps 750 mmHg 80%
21:00 +16°C° 0 mm 3 mps 751 mmHg 82%
22:00 +14°C° 0 mm 3 mps 751 mmHg 84%
23:00 +13°C° 0 mm 3 mps 751 mmHg 86%

Day after tomorrow, 12 August, Wednesday

Time Temperature Precipitation Wind Pressure Humidity
00:00 +12°C° 0 mm 3 mps 751 mmHg 87%
01:00 +13°C° 0 mm 2 mps 751 mmHg 88%
02:00 +12°C° 0 mm 2 mps 751 mmHg 89%
03:00 +12°C° 0 mm 2 mps 752 mmHg 90%
04:00 +10°C° 0 mm 2 mps 752 mmHg 91%
05:00 +10°C° 0 mm 3 mps 752 mmHg 92%
06:00 +11°C° 0 mm 3 mps 752 mmHg 86%
07:00 +13°C° 0 mm 4 mps 752 mmHg 79%
08:00 +14°C° 0 mm 4 mps 752 mmHg 73%
09:00 +15°C° 0 mm 4 mps 752 mmHg 70%
10:00 +17°C° 0 mm 4 mps 752 mmHg 68%
11:00 +17°C° 0 mm 5 mps 752 mmHg 65%
12:00 +18°C° 0 mm 4 mps 752 mmHg 65%
13:00 +18°C° 0 mm 4 mps 752 mmHg 64%
14:00 +18°C° 0 mm 4 mps 752 mmHg 64%
15:00 +19°C° 0 mm 3 mps 752 mmHg 65%
16:00 +19°C° 0 mm 3 mps 752 mmHg 67%
17:00 +19°C° 0 mm 3 mps 752 mmHg 68%
18:00 +18°C° 0.1 mm 3 mps 752 mmHg 72%
19:00 +17°C° 0.1 mm 3 mps 752 mmHg 77%
20:00 +16°C° 0.1 mm 2 mps 752 mmHg 81%
21:00 +15°C° 0 mm 2 mps 752 mmHg 85%
22:00 +13°C° 0 mm 3 mps 752 mmHg 89%
23:00 +12°C° 0 mm 3 mps 753 mmHg 92%

13 August, Thursday

Time Temperature Precipitation Wind Pressure Humidity
00:00 +11°C° 0 mm 3 mps 753 mmHg 92%
01:00 +12°C° 0 mm 2 mps 753 mmHg 92%
02:00 +10°C° 0 mm 2 mps 753 mmHg 93%
03:00 +10°C° 0 mm 2 mps 753 mmHg 90%
04:00 +12°C° 0 mm 2 mps 753 mmHg 87%
05:00 +12°C° 0 mm 2 mps 753 mmHg 84%
06:00 +13°C° 0 mm 2 mps 753 mmHg 80%
07:00 +14°C° 0 mm 2 mps 753 mmHg 76%
08:00 +14°C° 0 mm 3 mps 753 mmHg 72%
09:00 +16°C° 0 mm 3 mps 753 mmHg 67%
10:00 +16°C° 0 mm 3 mps 753 mmHg 62%
11:00 +17°C° 0 mm 4 mps 753 mmHg 57%
12:00 +17°C° 0 mm 4 mps 753 mmHg 58%
13:00 +17°C° 0 mm 4 mps 753 mmHg 58%
14:00 +18°C° 0 mm 4 mps 752 mmHg 59%
15:00 +17°C° 0 mm 4 mps 752 mmHg 60%
16:00 +17°C° 0 mm 3 mps 752 mmHg 61%
17:00 +17°C° 0 mm 3 mps 752 mmHg 62%
18:00 +14°C° 0 mm 3 mps 753 mmHg 67%
19:00 +14°C° 0 mm 2 mps 753 mmHg 71%
20:00 +13°C° 0 mm 2 mps 753 mmHg 76%
21:00 +12°C° 0 mm 2 mps 753 mmHg 78%
22:00 +10°C° 0 mm 2 mps 753 mmHg 80%
23:00 +10°C° 0 mm 2 mps 753 mmHg 82%

14 August, Friday

Time Temperature Precipitation Wind Pressure Humidity
00:00 +9°C° 0 mm 2 mps 753 mmHg 84%
01:00 +10°C° 0 mm 1 mps 753 mmHg 86%
02:00 +10°C° 0 mm 1 mps 753 mmHg 88%
03:00 +8°C° 0 mm 2 mps 753 mmHg 89%
04:00 +8°C° 0 mm 2 mps 753 mmHg 90%
05:00 +8°C° 0 mm 2 mps 753 mmHg 91%
06:00 +10°C° 0 mm 2 mps 753 mmHg 85%
07:00 +13°C° 0 mm 2 mps 753 mmHg 79%
08:00 +14°C° 0 mm 2 mps 753 mmHg 73%
09:00 +16°C° 0 mm 2 mps 753 mmHg 68%
10:00 +17°C° 0 mm 2 mps 753 mmHg 62%
11:00 +18°C° 0 mm 2 mps 753 mmHg 57%
12:00 +19°C° 0 mm 2 mps 753 mmHg 55%
13:00 +19°C° 0 mm 2 mps 753 mmHg 54%
14:00 +20°C° 0 mm 2 mps 752 mmHg 52%
15:00 +20°C° 0 mm 2 mps 752 mmHg 54%
16:00 +21°C° 0 mm 1 mps 752 mmHg 55%
17:00 +21°C° 0 mm 1 mps 752 mmHg 57%
18:00 +19°C° 0 mm 1 mps 752 mmHg 63%
19:00 +16°C° 0 mm 2 mps 752 mmHg 69%
20:00 +15°C° 0 mm 2 mps 752 mmHg 74%
21:00 +14°C° 0 mm 2 mps 752 mmHg 75%
22:00 +14°C° 0 mm 2 mps 752 mmHg 76%
23:00 +14°C° 0 mm 2 mps 752 mmHg 77%

15 August, Saturday

Time Temperature Precipitation Wind Pressure Humidity
00:00 +13°C° 0 mm 2 mps 752 mmHg 80%
01:00 +13°C° 0 mm 2 mps 752 mmHg 82%
02:00 +12°C° 0 mm 3 mps 752 mmHg 84%
03:00 +13°C° 0 mm 2 mps 751 mmHg 83%
04:00 +13°C° 0 mm 2 mps 751 mmHg 83%
05:00 +13°C° 0 mm 2 mps 751 mmHg 83%
06:00 +14°C° 0 mm 2 mps 751 mmHg 80%
07:00 +15°C° 0 mm 2 mps 751 mmHg 78%
08:00 +16°C° 0 mm 2 mps 751 mmHg 76%
09:00 +18°C° 0 mm 3 mps 751 mmHg 71%
10:00 +19°C° 0 mm 3 mps 751 mmHg 67%
11:00 +21°C° 0 mm 3 mps 751 mmHg 63%
12:00 +21°C° 0.1 mm 3 mps 750 mmHg 62%
13:00 +22°C° 0.1 mm 3 mps 750 mmHg 61%
14:00 +22°C° 0.1 mm 3 mps 750 mmHg 60%
15:00 +22°C° 0.2 mm 3 mps 750 mmHg 62%
16:00 +22°C° 0.2 mm 3 mps 749 mmHg 65%
17:00 +21°C° 0.2 mm 3 mps 749 mmHg 67%
18:00 +20°C° 0.1 mm 2 mps 749 mmHg 72%
19:00 +18°C° 0.1 mm 2 mps 749 mmHg 77%
20:00 +17°C° 0.1 mm 2 mps 749 mmHg 81%
21:00 +16°C° 0 mm 2 mps 749 mmHg 83%
22:00 +15°C° 0 mm 2 mps 749 mmHg 84%
23:00 +14°C° 0 mm 3 mps 749 mmHg 86%
Show more